| time (UTC) | temp C | wind direction | speed KPH | gust KPH | rain 1hr cm | rain 24hr cm | rain mn cm | humidity % | barometer mb |
| 20260507203208 | 17 | 263 | 1.6 | 6.4 | 0.00 | 0.71 | 0.71 | 53 | 1001.8 |
| 20260507202702 | 17 | 218 | 1.6 | 8.0 | 0.00 | 0.71 | 0.71 | 55 | 1001.9 |
| 20260507202157 | 17 | 264 | 1.6 | 8.0 | 0.00 | 0.71 | 0.71 | 55 | 1001.8 |
| 20260507201650 | 17 | 205 | 1.6 | 6.4 | 0.00 | 0.71 | 0.71 | 53 | 1001.6 |
| 20260507201143 | 17 | 85 | 0.0 | 3.2 | 0.00 | 0.71 | 0.71 | 58 | 1001.6 |
| 20260507200638 | 16 | 60 | 0.0 | 3.2 | 0.00 | 0.71 | 0.71 | 58 | 1001.6 |
| 20260507200131 | 16 | 60 | 1.6 | 6.4 | 0.00 | 0.71 | 0.71 | 56 | 1001.7 |
| 20260507195626 | 16 | 221 | 1.6 | 6.4 | 0.00 | 0.71 | 0.71 | 54 | 1001.7 |
| 20260507195119 | 17 | 257 | 1.6 | 4.8 | 0.00 | 0.71 | 0.71 | 58 | 1001.7 |
| 20260507194613 | 16 | 293 | 1.6 | 4.8 | 0.00 | 0.71 | 0.71 | 58 | 1001.9 |
| 20260507194107 | 16 | 226 | 1.6 | 6.4 | 0.00 | 0.71 | 0.71 | 61 | 1001.8 |
| 20260507193601 | 15 | 314 | 1.6 | 6.4 | 0.00 | 0.71 | 0.71 | 57 | 1001.9 |
| 20260507193056 | 15 | 250 | 1.6 | 9.7 | 0.00 | 0.71 | 0.71 | 58 | 1002.0 |
| 20260507192550 | 16 | 226 | 1.6 | 9.7 | 0.00 | 0.71 | 0.71 | 56 | 1002.3 |
| 20260507192043 | 16 | 232 | 0.0 | 4.8 | 0.00 | 0.71 | 0.71 | 58 | 1002.4 |
| 20260507191537 | 16 | 76 | 3.2 | 16.1 | 0.00 | 0.71 | 0.71 | 64 | 1002.4 |
| 20260507191030 | 16 | 134 | 3.2 | 16.1 | 0.00 | 0.71 | 0.71 | 58 | 1002.5 |
| 20260507190526 | 16 | 274 | 1.6 | 8.0 | 0.00 | 0.71 | 0.71 | 62 | 1002.2 |
| 20260507190019 | 15 | 266 | 0.0 | 4.8 | 0.00 | 0.71 | 0.71 | 66 | 1002.0 |
| 20260507185513 | 15 | 226 | 0.0 | 3.2 | 0.00 | 0.71 | 0.71 | 64 | 1002.4 |
| 20260507185007 | 15 | 69 | 0.0 | 4.8 | 0.00 | 0.71 | 0.71 | 63 | 1002.8 |
| 20260507184501 | 15 | 330 | 0.0 | 4.8 | 0.00 | 0.71 | 0.71 | 64 | 1002.8 |
| 20260507183957 | 15 | 280 | 0.0 | 3.2 | 0.00 | 0.71 | 0.71 | 63 | 1002.8 |
| 20260507183449 | 15 | 70 | 0.0 | 3.2 | 0.00 | 0.71 | 0.71 | 61 | 1002.6 |
| 20260507182944 | 15 | 210 | 0.0 | 4.8 | 0.00 | 0.71 | 0.71 | 64 | 1002.9 |
| 20260507182437 | 15 | 210 | 1.6 | 4.8 | 0.00 | 0.71 | 0.71 | 62 | 1003.0 |
| 20260507181931 | 15 | 288 | 1.6 | 8.0 | 0.00 | 0.71 | 0.71 | 60 | 1003.1 |
| 20260507181427 | 15 | 63 | 1.6 | 8.0 | 0.00 | 0.71 | 0.71 | 62 | 1002.9 |
| 20260507180919 | 15 | 41 | 1.6 | 8.0 | 0.00 | 0.71 | 0.71 | 64 | 1002.9 |
| 20260507180412 | 15 | 253 | 0.0 | 8.0 | 0.00 | 0.71 | 0.71 | 63 | 1003.0 |
| 20260507175907 | 14 | 56 | 1.6 | 4.8 | 0.00 | 0.71 | 0.71 | 58 | 1003.0 |
| 20260507175401 | 14 | 57 | 1.6 | 4.8 | 0.00 | 0.71 | 0.71 | 56 | 1002.9 |
| 20260507174857 | 15 | 243 | 0.0 | 3.2 | 0.00 | 0.71 | 0.71 | 61 | 1003.5 |
| 20260507174349 | 15 | 245 | 0.0 | 3.2 | 0.00 | 0.71 | 0.71 | 59 | 1003.5 |
| 20260507173843 | 14 | 68 | 0.0 | 3.2 | 0.00 | 0.71 | 0.71 | 63 | 1003.7 |
| 20260507173337 | 14 | 68 | 1.6 | 4.8 | 0.00 | 0.71 | 0.71 | 61 | 1003.6 |
| 20260507172831 | 14 | 61 | 1.6 | 4.8 | 0.00 | 0.71 | 0.71 | 57 | 1003.4 |
| 20260507172548 | 14 | 229 | 1.6 | 3.2 | 0.00 | 0.71 | 0.71 | 53 | 1003.7 |
| 20260507171313 | 14 | 233 | 1.6 | 4.8 | 0.00 | 0.74 | 0.71 | 54 | 1003.9 |
| 20260507170808 | 14 | 303 | 1.6 | 4.8 | 0.00 | 0.74 | 0.71 | 56 | 1003.6 |
| 20260507170301 | 14 | 65 | 1.6 | 4.8 | 0.00 | 0.74 | 0.71 | 53 | 1003.7 |
| 20260507165757 | 14 | 82 | 0.0 | 3.2 | 0.00 | 0.74 | 0.71 | 53 | 1003.7 |
| 20260507165515 | 14 | 82 | 0.0 | 3.2 | 0.00 | 0.74 | 0.71 | 54 | 1004.0 |
| 20260507164743 | 14 | 61 | 0.0 | 3.2 | 0.00 | 0.74 | 0.71 | 56 | 1004.0 |
| 20260507164237 | 14 | 62 | 0.0 | 3.2 | 0.00 | 0.74 | 0.71 | 55 | 1004.1 |
| 20260507163949 | 14 | 60 | 0.0 | 3.2 | 0.00 | 0.74 | 0.71 | 53 | 1004.2 |
| 20260507163226 | 14 | 111 | 0.0 | 1.6 | 0.00 | 0.74 | 0.71 | 55 | 1004.4 |
| 20260507162716 | 14 | 226 | 0.0 | 3.2 | 0.00 | 0.74 | 0.71 | 55 | 1004.3 |
| 20260507162211 | 13 | 226 | 0.0 | 3.2 | 0.00 | 0.74 | 0.71 | 56 | 1004.3 |
| 20260507161705 | 13 | 77 | 0.0 | 3.2 | 0.00 | 0.74 | 0.71 | 56 | 1004.3 |
| 20260507161158 | 13 | 239 | 0.0 | 3.2 | 0.00 | 0.74 | 0.71 | 60 | 1004.4 |
| 20260507160917 | 13 | 239 | 0.0 | 3.2 | 0.00 | 0.74 | 0.71 | 59 | 1004.5 |
| 20260507160146 | 13 | 238 | 1.6 | 4.8 | 0.00 | 0.74 | 0.71 | 58 | 1004.6 |
| 20260507155640 | 13 | 127 | 1.6 | 4.8 | 0.00 | 0.74 | 0.71 | 58 | 1004.7 |
| 20260507155134 | 13 | 77 | 0.0 | 4.8 | 0.00 | 0.74 | 0.71 | 59 | 1004.8 |
| 20260507154852 | 13 | 89 | 0.0 | 1.6 | 0.00 | 0.74 | 0.71 | 63 | 1004.9 |
| 20260507154124 | 13 | 89 | 0.0 | 3.2 | 0.00 | 0.74 | 0.71 | 65 | 1004.8 |
| 20260507153619 | 13 | 89 | 0.0 | 3.2 | 0.00 | 0.76 | 0.71 | 65 | 1004.8 |
| 20260507153119 | 12 | 82 | 0.0 | 4.8 | 0.00 | 0.76 | 0.71 | 65 | 1004.7 |
| 20260507152616 | 12 | 110 | 0.0 | 6.4 | 0.00 | 0.76 | 0.71 | 64 | 1004.5 |
| 20260507152117 | 12 | 98 | 0.0 | 6.4 | 0.00 | 0.76 | 0.71 | 63 | 1004.6 |
| 20260507151614 | 12 | 86 | 0.0 | 1.6 | 0.00 | 0.79 | 0.71 | 67 | 1004.7 |
| 20260507151114 | 12 | 86 | 0.0 | 4.8 | 0.00 | 0.79 | 0.71 | 68 | 1004.8 |
| 20260507150829 | 12 | 86 | 1.6 | 4.8 | 0.00 | 0.79 | 0.71 | 64 | 1005.0 |
| 20260507150108 | 12 | 219 | 0.0 | 4.8 | 0.00 | 0.79 | 0.71 | 66 | 1005.0 |
| 20260507145609 | 13 | 101 | 0.0 | 3.2 | 0.00 | 0.81 | 0.71 | 67 | 1005.0 |
| 20260507145334 | 13 | 130 | 0.0 | 3.2 | 0.00 | 0.81 | 0.71 | 69 | 1005.2 |
| 20260507144604 | 13 | 65 | 0.0 | 4.8 | 0.00 | 0.84 | 0.71 | 71 | 1005.3 |
| 20260507144104 | 13 | 52 | 0.0 | 4.8 | 0.00 | 0.86 | 0.71 | 69 | 1005.3 |
| 20260507143604 | 13 | 101 | 1.6 | 8.0 | 0.00 | 0.91 | 0.71 | 72 | 1005.4 |
| 20260507143104 | 13 | 101 | 1.6 | 11.3 | 0.00 | 0.94 | 0.71 | 66 | 1005.3 |
| 20260507142604 | 13 | 53 | 1.6 | 11.3 | 0.00 | 0.97 | 0.71 | 68 | 1005.3 |
| 20260507142058 | 13 | 101 | 1.6 | 9.7 | 0.00 | 0.97 | 0.71 | 69 | 1005.3 |
| 20260507141558 | 13 | 88 | 1.6 | 9.7 | 0.00 | 0.99 | 0.71 | 66 | 1005.2 |
| 20260507141058 | 13 | 68 | 0.0 | 9.7 | 0.00 | 0.99 | 0.71 | 72 | 1005.2 |
| 20260507140558 | 13 | 96 | 0.0 | 6.4 | 0.00 | 0.99 | 0.71 | 72 | 1005.2 |
| 20260507140059 | 13 | 92 | 1.6 | 11.3 | 0.00 | 0.99 | 0.71 | 73 | 1005.2 |
| 20260507135558 | 12 | 68 | 3.2 | 11.3 | 0.00 | 1.02 | 0.71 | 71 | 1005.4 |
| 20260507135058 | 13 | 70 | 1.6 | 8.0 | 0.00 | 1.02 | 0.71 | 71 | 1005.5 |
| 20260507134558 | 13 | 48 | 1.6 | 6.4 | 0.00 | 1.02 | 0.71 | 71 | 1005.5 |
| 20260507134058 | 13 | 292 | 0.0 | 6.4 | 0.00 | 1.02 | 0.71 | 73 | 1005.5 |
| 20260507133812 | 13 | 115 | 0.0 | 6.4 | 0.00 | 1.02 | 0.71 | 76 | 1005.6 |
| 20260507133054 | 13 | 288 | 0.0 | 6.4 | 0.00 | 1.02 | 0.71 | 72 | 1005.3 |
| 20260507132555 | 13 | 99 | 0.0 | 3.2 | 0.00 | 1.02 | 0.71 | 76 | 1005.3 |
| 20260507132055 | 12 | 153 | 0.0 | 4.8 | 0.00 | 1.02 | 0.71 | 75 | 1005.4 |
| 20260507131555 | 12 | 172 | 1.6 | 6.4 | 0.00 | 1.02 | 0.71 | 75 | 1005.4 |
| 20260507131054 | 12 | 82 | 1.6 | 8.0 | 0.00 | 1.02 | 0.71 | 77 | 1005.1 |
| 20260507130554 | 12 | 84 | 1.6 | 8.0 | 0.00 | 1.02 | 0.71 | 77 | 1005.2 |
| 20260507130054 | 12 | 65 | 1.6 | 8.0 | 0.00 | 1.02 | 0.71 | 79 | 1005.1 |
| 20260507125556 | 12 | 101 | 0.0 | 6.4 | 0.00 | 1.02 | 0.71 | 81 | 1005.3 |
| 20260507125051 | 12 | 85 | 0.0 | 6.4 | 0.00 | 1.02 | 0.71 | 80 | 1005.5 |
| 20260507124551 | 12 | 71 | 0.0 | 6.4 | 0.00 | 1.02 | 0.71 | 81 | 1005.5 |
| 20260507124050 | 12 | 86 | 0.0 | 3.2 | 0.00 | 1.02 | 0.71 | 82 | 1005.6 |
| 20260507123550 | 12 | 86 | 0.0 | 1.6 | 0.00 | 1.02 | 0.71 | 83 | 1005.4 |
| 20260507123051 | 12 | 87 | 1.6 | 6.4 | 0.00 | 1.02 | 0.71 | 84 | 1005.3 |
| 20260507122550 | 12 | 87 | 1.6 | 6.4 | 0.00 | 1.02 | 0.71 | 84 | 1005.2 |
| 20260507122050 | 12 | 146 | 0.0 | 4.8 | 0.00 | 1.02 | 0.71 | 86 | 1005.2 |
| 20260507121550 | 12 | 78 | 1.6 | 4.8 | 0.00 | 1.02 | 0.71 | 87 | 1005.2 |
| 20260507121050 | 12 | 127 | 1.6 | 8.0 | 0.00 | 1.02 | 0.71 | 88 | 1005.2 |
| 20260507120546 | 12 | 110 | 0.0 | 8.0 | 0.00 | 1.02 | 0.71 | 88 | 1005.0 |
| 20260507120047 | 12 | 41 | 0.0 | 4.8 | 0.00 | 1.02 | 0.71 | 88 | 1005.0 |
| 20260507115547 | 12 | 41 | 0.0 | 4.8 | 0.00 | 1.02 | 0.71 | 88 | 1005.1 |
| 20260507115046 | 12 | 89 | 0.0 | 1.6 | 0.00 | 1.02 | 0.71 | 88 | 1005.1 |
| 20260507114547 | 11 | 89 | 0.0 | 1.6 | 0.00 | 1.02 | 0.71 | 88 | 1005.1 |
| 20260507114047 | 11 | 79 | 0.0 | 1.6 | 0.00 | 1.02 | 0.71 | 88 | 1005.1 |
| 20260507113546 | 11 | 79 | 0.0 | 0.0 | 0.00 | 1.02 | 0.71 | 88 | 1004.9 |
| 20260507112547 | 11 | 79 | 0.0 | 1.6 | 0.00 | 1.02 | 0.71 | 88 | 1005.0 |
| 20260507112044 | 11 | 79 | 0.0 | 1.6 | 0.00 | 1.02 | 0.71 | 88 | 1004.8 |
| 20260507111811 | 11 | 134 | 0.0 | 1.6 | 0.00 | 1.02 | 0.71 | 88 | 1004.7 |
| 20260507111044 | 11 | 134 | 0.0 | 1.6 | 0.00 | 1.02 | 0.71 | 88 | 1004.8 |
| 20260507110542 | 11 | 134 | 0.0 | 0.0 | 0.00 | 1.02 | 0.71 | 88 | 1004.8 |
| 20260507110301 | 11 | 134 | 0.0 | 0.0 | 0.00 | 1.02 | 0.71 | 88 | 1004.8 |
| 20260507105538 | 11 | 134 | 0.0 | 0.0 | 0.00 | 1.02 | 0.71 | 88 | 1004.7 |
| 20260507105036 | 11 | 134 | 0.0 | 0.0 | 0.00 | 1.02 | 0.71 | 88 | 1004.6 |
| 20260507104536 | 11 | 134 | 0.0 | 0.0 | 0.00 | 1.02 | 0.71 | 88 | 1004.5 |
| 20260507104036 | 11 | 134 | 0.0 | 1.6 | 0.00 | 1.02 | 0.71 | 88 | 1004.5 |
| 20260507103536 | 11 | 134 | 0.0 | 1.6 | 0.00 | 1.02 | 0.71 | 88 | 1004.4 |
| 20260507103036 | 11 | 134 | 0.0 | 1.6 | 0.00 | 1.02 | 0.71 | 88 | 1004.3 |
| 20260507102536 | 11 | 139 | 0.0 | 3.2 | 0.00 | 1.02 | 0.71 | 88 | 1004.3 |
| 20260507102258 | 11 | 99 | 0.0 | 3.2 | 0.00 | 1.02 | 0.71 | 88 | 1004.4 |
| 20260507101805 | 11 | 354 | 0.0 | 1.6 | 0.00 | 1.02 | 0.71 | 88 | 1004.3 |
| 20260507101036 | 11 | 109 | 0.0 | 4.8 | 0.00 | 1.02 | 0.71 | 88 | 1004.2 |
| 20260507100758 | 11 | 109 | 0.0 | 4.8 | 0.00 | 1.02 | 0.71 | 88 | 1004.2 |
| 20260507100032 | 11 | 58 | 0.0 | 0.0 | 0.00 | 1.02 | 0.71 | 88 | 1004.2 |
| 20260507095526 | 11 | 58 | 0.0 | 3.2 | 0.00 | 1.02 | 0.71 | 88 | 1004.3 |
| 20260507095241 | 11 | 58 | 0.0 | 3.2 | 0.00 | 1.02 | 0.71 | 88 | 1004.3 |
| 20260507094514 | 11 | 91 | 0.0 | 0.0 | 0.00 | 1.02 | 0.71 | 88 | 1004.4 |
| 20260507094236 | 11 | 91 | 0.0 | 0.0 | 0.00 | 1.02 | 0.71 | 88 | 1004.1 |
| 20260507093502 | 11 | 91 | 0.0 | 3.2 | 0.00 | 1.02 | 0.71 | 88 | 1004.1 |
| 20260507092956 | 11 | 91 | 0.0 | 3.2 | 0.00 | 1.02 | 0.71 | 88 | 1004.2 |
| 20260507092450 | 11 | 103 | 0.0 | 0.0 | 0.00 | 1.02 | 0.71 | 88 | 1004.3 |
| 20260507091944 | 11 | 103 | 0.0 | 0.0 | 0.00 | 1.02 | 0.71 | 88 | 1004.3 |
| 20260507091438 | 12 | 103 | 0.0 | 0.0 | 0.00 | 1.02 | 0.71 | 88 | 1004.2 |
| 20260507090931 | 12 | 103 | 0.0 | 0.0 | 0.00 | 1.02 | 0.71 | 88 | 1004.1 |
| 20260507090650 | 12 | 103 | 0.0 | 0.0 | 0.00 | 1.02 | 0.71 | 88 | 1004.1 |
| 20260507085920 | 12 | 103 | 0.0 | 0.0 | 0.00 | 1.02 | 0.71 | 88 | 1003.9 |
| 20260507084908 | 12 | 103 | 0.0 | 3.2 | 0.00 | 1.02 | 0.71 | 88 | 1003.8 |
| 20260507084627 | 12 | 103 | 0.0 | 3.2 | 0.00 | 1.02 | 0.71 | 88 | 1004.1 |
| 20260507083856 | 12 | 89 | 0.0 | 3.2 | 0.00 | 1.02 | 0.71 | 88 | 1004.1 |
| 20260507083349 | 12 | 264 | 0.0 | 1.6 | 0.00 | 1.02 | 0.71 | 88 | 1004.0 |
| 20260507082844 | 12 | 264 | 0.0 | 1.6 | 0.00 | 1.02 | 0.71 | 88 | 1003.9 |
| 20260507082338 | 12 | 110 | 0.0 | 1.6 | 0.00 | 1.02 | 0.71 | 88 | 1003.8 |
| 20260507081833 | 12 | 110 | 0.0 | 4.8 | 0.00 | 1.02 | 0.71 | 88 | 1003.7 |
| 20260507081326 | 12 | 72 | 0.0 | 4.8 | 0.00 | 1.02 | 0.71 | 88 | 1003.5 |
| 20260507080820 | 12 | 117 | 1.6 | 9.7 | 0.00 | 1.02 | 0.71 | 88 | 1003.2 |
| 20260507080536 | 12 | 117 | 1.6 | 9.7 | 0.00 | 1.02 | 0.71 | 88 | 1003.3 |
| 20260507075808 | 12 | 61 | 1.6 | 9.7 | 0.00 | 1.02 | 0.71 | 88 | 1003.4 |
| 20260507075301 | 12 | 245 | 1.6 | 8.0 | 0.00 | 1.02 | 0.71 | 88 | 1003.3 |
| 20260507074756 | 13 | 131 | 1.6 | 6.4 | 0.00 | 1.02 | 0.71 | 87 | 1003.3 |
| 20260507074250 | 13 | 91 | 1.6 | 6.4 | 0.00 | 1.02 | 0.71 | 87 | 1003.0 |
| 20260507074008 | 13 | 70 | 1.6 | 6.4 | 0.00 | 1.02 | 0.71 | 87 | 1002.9 |
| 20260507073238 | 13 | 74 | 0.0 | 6.4 | 0.00 | 1.02 | 0.71 | 87 | 1002.9 |
| 20260507072732 | 13 | 53 | 0.0 | 4.8 | 0.00 | 1.02 | 0.71 | 87 | 1003.0 |
| 20260507072226 | 13 | 96 | 0.0 | 1.6 | 0.00 | 1.02 | 0.71 | 87 | 1002.9 |
| 20260507071721 | 13 | 289 | 0.0 | 4.8 | 0.00 | 1.02 | 0.71 | 87 | 1002.9 |
| 20260507071214 | 13 | 287 | 0.0 | 4.8 | 0.00 | 1.02 | 0.71 | 87 | 1002.7 |
| 20260507070708 | 13 | 181 | 0.0 | 3.2 | 0.00 | 1.02 | 0.71 | 87 | 1002.7 |
| 20260507070202 | 13 | 122 | 0.0 | 3.2 | 0.03 | 1.02 | 0.71 | 87 | 1002.8 |
| 20260507065150 | 13 | 351 | 0.0 | 8.0 | 0.03 | 1.02 | 0.71 | 87 | 1002.9 |
| 20260507064909 | 13 | 93 | 0.0 | 4.8 | 0.03 | 1.02 | 0.71 | 87 | 1002.8 |
| 20260507064138 | 13 | 150 | 1.6 | 9.7 | 0.03 | 1.02 | 0.71 | 87 | 1002.6 |
| 20260507063127 | 13 | 310 | 3.2 | 9.7 | 0.05 | 1.02 | 0.71 | 87 | 1002.4 |
| 20260507062845 | 13 | 72 | 1.6 | 9.7 | 0.10 | 1.02 | 0.71 | 87 | 1002.2 |
| 20260507062114 | 13 | 91 | 1.6 | 6.4 | 0.15 | 1.02 | 0.71 | 88 | 1002.2 |
| 20260507061608 | 14 | 48 | 1.6 | 6.4 | 0.18 | 1.02 | 0.71 | 87 | 1002.3 |
| 20260507061102 | 14 | 81 | 1.6 | 4.8 | 0.28 | 1.02 | 0.71 | 87 | 1002.5 |
| 20260507060820 | 14 | 63 | 1.6 | 4.8 | 0.30 | 0.99 | 0.71 | 87 | 1002.4 |
| 20260507060050 | 14 | 89 | 0.0 | 1.6 | 0.33 | 0.99 | 0.69 | 87 | 1002.6 |
| 20260507055544 | 14 | 89 | 0.0 | 4.8 | 0.41 | 0.99 | 0.69 | 87 | 1002.7 |
| 20260507055305 | 15 | 100 | 0.0 | 4.8 | 0.43 | 0.99 | 0.69 | 87 | 1003.0 |
| 20260507054533 | 15 | 105 | 0.0 | 4.8 | 0.43 | 0.99 | 0.69 | 87 | 1002.7 |
| 20260507054244 | 15 | 105 | 0.0 | 4.8 | 0.53 | 0.99 | 0.69 | 87 | 1002.5 |
| 20260507053520 | 15 | 123 | 0.0 | 3.2 | 0.69 | 0.99 | 0.69 | 87 | 1002.4 |
| 20260507053014 | 15 | 120 | 0.0 | 4.8 | 0.66 | 0.97 | 0.66 | 87 | 1002.6 |
| 20260507052508 | 15 | 58 | 0.0 | 4.8 | 0.61 | 0.91 | 0.61 | 87 | 1002.7 |
| 20260507052003 | 15 | 187 | 1.6 | 3.2 | 0.56 | 0.86 | 0.56 | 87 | 1002.7 |
| 20260507051456 | 15 | 64 | 1.6 | 3.2 | 0.48 | 0.79 | 0.51 | 87 | 1002.6 |
| 20260507050950 | 15 | 141 | 0.0 | 3.2 | 0.43 | 0.74 | 0.43 | 87 | 1003.2 |
| 20260507050444 | 15 | 228 | 0.0 | 3.2 | 0.38 | 0.69 | 0.38 | 87 | 1003.0 |
| 20260507045937 | 16 | 103 | 0.0 | 1.6 | 0.33 | 0.64 | 0.33 | 87 | 1002.3 |
| 20260507045432 | 16 | 103 | 0.0 | 0.0 | 0.28 | 0.58 | 0.28 | 86 | 1002.9 |
| 20260507044926 | 16 | 103 | 0.0 | 3.2 | 0.25 | 0.56 | 0.25 | 86 | 1002.8 |
| 20260507044421 | 16 | 103 | 0.0 | 3.2 | 0.25 | 0.56 | 0.25 | 85 | 1003.1 |
| 20260507043914 | 16 | 101 | 0.0 | 6.4 | 0.08 | 0.38 | 0.08 | 84 | 1003.1 |
| 20260507043639 | 16 | 70 | 1.6 | 6.4 | 0.00 | 0.30 | 0.00 | 84 | 1003.0 |
| 20260507042903 | 16 | 296 | 1.6 | 4.8 | 0.00 | 0.30 | 0.00 | 84 | 1002.8 |
| 20260507042356 | 16 | 175 | 0.0 | 4.8 | 0.00 | 0.30 | 0.00 | 84 | 1003.0 |
| 20260507041850 | 16 | 96 | 0.0 | 4.8 | 0.00 | 0.30 | 0.00 | 84 | 1002.7 |
| 20260507041348 | 16 | 15 | 0.0 | 4.8 | 0.00 | 0.30 | 0.00 | 84 | 1002.4 |
| 20260507040848 | 16 | 271 | 0.0 | 4.8 | 0.00 | 0.30 | 0.00 | 85 | 1002.3 |
| 20260507040347 | 16 | 142 | 0.0 | 4.8 | 0.00 | 0.30 | 0.00 | 85 | 1002.3 |
| 20260507035848 | 17 | 279 | 1.6 | 6.4 | 0.00 | 0.30 | 0.30 | 86 | 1002.3 |
| 20260507035345 | 17 | 40 | 1.6 | 9.7 | 0.00 | 0.30 | 0.30 | 87 | 1002.3 |
| 20260507034845 | 17 | 61 | 3.2 | 9.7 | 0.00 | 0.30 | 0.30 | 87 | 1002.4 |
| 20260507034343 | 17 | 98 | 1.6 | 8.0 | 0.00 | 0.30 | 0.30 | 87 | 1002.3 |
| 20260507033844 | 17 | 281 | 0.0 | 4.8 | 0.00 | 0.30 | 0.30 | 87 | 1002.2 |
| 20260507033344 | 17 | 195 | 0.0 | 0.0 | 0.00 | 0.30 | 0.30 | 87 | 1002.1 |
| 20260507032841 | 17 | 195 | 0.0 | 0.0 | 0.00 | 0.30 | 0.30 | 87 | 1002.1 |
| 20260507032339 | 17 | 195 | 0.0 | 3.2 | 0.00 | 0.30 | 0.30 | 87 | 1001.9 |
| 20260507031841 | 17 | 195 | 0.0 | 3.2 | 0.00 | 0.30 | 0.30 | 87 | 1001.8 |
| 20260507031336 | 18 | 75 | 0.0 | 1.6 | 0.00 | 0.30 | 0.30 | 87 | 1002.0 |
| 20260507030835 | 18 | 75 | 0.0 | 1.6 | 0.00 | 0.30 | 0.30 | 87 | 1002.1 |
| 20260507030334 | 17 | 75 | 0.0 | 3.2 | 0.00 | 0.30 | 0.30 | 86 | 1002.1 |
| 20260507025834 | 17 | 75 | 0.0 | 3.2 | 0.00 | 0.30 | 0.30 | 86 | 1002.0 |
| 20260507025327 | 17 | 228 | 0.0 | 1.6 | 0.00 | 0.30 | 0.30 | 87 | 1001.8 |
| 20260507024825 | 17 | 216 | 0.0 | 0.0 | 0.00 | 0.30 | 0.30 | 87 | 1001.7 |
| 20260507024324 | 17 | 216 | 0.0 | 0.0 | 0.00 | 0.30 | 0.30 | 87 | 1001.6 |
| 20260507023821 | 17 | 216 | 0.0 | 0.0 | 0.00 | 0.30 | 0.30 | 87 | 1001.3 |
| 20260507023551 | 17 | 216 | 0.0 | 0.0 | 0.00 | 0.30 | 0.30 | 87 | 1001.5 |
| 20260507022821 | 17 | 216 | 0.0 | 0.0 | 0.00 | 0.30 | 0.30 | 87 | 1001.5 |
| 20260507022319 | 17 | 216 | 0.0 | 0.0 | 0.00 | 0.30 | 0.30 | 87 | 1001.4 |
| 20260507021819 | 17 | 216 | 0.0 | 0.0 | 0.00 | 0.30 | 0.30 | 87 | 1001.3 |
| 20260507021316 | 17 | 216 | 0.0 | 0.0 | 0.00 | 0.30 | 0.30 | 87 | 1001.5 |
| 20260507020814 | 17 | 216 | 0.0 | 0.0 | 0.00 | 0.30 | 0.30 | 87 | 1001.4 |
| 20260507020311 | 17 | 216 | 0.0 | 0.0 | 0.00 | 0.30 | 0.30 | 87 | 1001.6 |
| 20260507015809 | 17 | 216 | 0.0 | 0.0 | 0.00 | 0.30 | 0.30 | 87 | 1001.5 |
| 20260507015307 | 17 | 216 | 0.0 | 0.0 | 0.00 | 0.30 | 0.30 | 87 | 1001.4 |
| 20260507014806 | 17 | 216 | 0.0 | 0.0 | 0.00 | 0.30 | 0.30 | 87 | 1001.4 |
| 20260507014305 | 17 | 216 | 0.0 | 0.0 | 0.00 | 0.30 | 0.30 | 87 | 1001.5 |
| 20260507014025 | 17 | 216 | 0.0 | 0.0 | 0.00 | 0.30 | 0.30 | 87 | 1001.6 |
| 20260507013304 | 17 | 216 | 0.0 | 0.0 | 0.00 | 0.30 | 0.30 | 87 | 1001.8 |
| 20260507012801 | 17 | 216 | 0.0 | 0.0 | 0.00 | 0.30 | 0.30 | 87 | 1002.1 |
| 20260507012259 | 17 | 216 | 0.0 | 0.0 | 0.00 | 0.30 | 0.30 | 87 | 1002.1 |
| 20260507011757 | 17 | 216 | 0.0 | 0.0 | 0.00 | 0.30 | 0.30 | 87 | 1002.1 |
| 20260507011259 | 17 | 216 | 0.0 | 0.0 | 0.00 | 0.30 | 0.30 | 87 | 1002.1 |
| 20260507010248 | 17 | 216 | 0.0 | 0.0 | 0.00 | 0.30 | 0.30 | 87 | 1001.9 |
| 20260507005741 | 17 | 216 | 0.0 | 0.0 | 0.00 | 0.30 | 0.30 | 87 | 1001.8 |
| 20260507005237 | 18 | 216 | 0.0 | 0.0 | 0.00 | 0.30 | 0.30 | 86 | 1001.6 |
| 20260507004950 | 18 | 216 | 0.0 | 0.0 | 0.00 | 0.30 | 0.30 | 86 | 1001.6 |
| 20260507004223 | 18 | 216 | 0.0 | 0.0 | 0.00 | 0.30 | 0.30 | 86 | 1001.5 |
| 20260507003717 | 18 | 216 | 0.0 | 0.0 | 0.00 | 0.30 | 0.30 | 86 | 1001.7 |
| 20260507003211 | 18 | 216 | 0.0 | 0.0 | 0.00 | 0.30 | 0.30 | 85 | 1001.5 |
| 20260507002708 | 18 | 216 | 0.0 | 0.0 | 0.00 | 0.30 | 0.30 | 85 | 1001.4 |
| 20260507002159 | 18 | 216 | 0.0 | 0.0 | 0.00 | 0.30 | 0.30 | 85 | 1001.4 |
| 20260507001653 | 18 | 216 | 0.0 | 0.0 | 0.00 | 0.30 | 0.30 | 84 | 1001.5 |
| 20260507001148 | 18 | 216 | 0.0 | 0.0 | 0.00 | 0.30 | 0.30 | 84 | 1001.6 |
| 20260507000641 | 19 | 216 | 0.0 | 0.0 | 0.00 | 0.30 | 0.30 | 84 | 1001.6 |
| 20260507000137 | 19 | 216 | 0.0 | 0.0 | 0.00 | 0.30 | 0.30 | 84 | 1001.4 |
| 20260506235629 | 19 | 216 | 0.0 | 0.0 | 0.00 | 0.30 | 0.30 | 83 | 1001.5 |
| 20260506235123 | 19 | 216 | 0.0 | 0.0 | 0.00 | 0.30 | 0.30 | 83 | 1001.3 |
| 20260506234617 | 19 | 216 | 0.0 | 0.0 | 0.00 | 0.30 | 0.30 | 83 | 1001.3 |
| 20260506234110 | 20 | 216 | 0.0 | 0.0 | 0.00 | 0.30 | 0.30 | 82 | 1001.2 |
| 20260506233607 | 20 | 216 | 0.0 | 1.6 | 0.00 | 0.30 | 0.30 | 82 | 1001.2 |
| 20260506233059 | 20 | 216 | 0.0 | 1.6 | 0.00 | 0.30 | 0.30 | 82 | 1001.1 |
| 20260506232047 | 20 | 168 | 0.0 | 4.8 | 0.00 | 0.30 | 0.30 | 81 | 1000.9 |
| 20260506231037 | 20 | 166 | 1.6 | 4.8 | 0.00 | 0.30 | 0.30 | 80 | 1000.9 |
| 20260506230530 | 20 | 176 | 1.6 | 9.7 | 0.00 | 0.30 | 0.30 | 80 | 1001.0 |
| 20260506230023 | 20 | 184 | 1.6 | 9.7 | 0.00 | 0.30 | 0.30 | 80 | 1001.0 |
| 20260506225518 | 20 | 235 | 1.6 | 8.0 | 0.00 | 0.30 | 0.30 | 79 | 1001.1 |
| 20260506225011 | 20 | 242 | 1.6 | 8.0 | 0.00 | 0.30 | 0.30 | 79 | 1000.9 |
| 20260506224507 | 20 | 213 | 1.6 | 8.0 | 0.00 | 0.30 | 0.30 | 79 | 1000.8 |
| 20260506223959 | 21 | 214 | 1.6 | 6.4 | 0.00 | 0.30 | 0.30 | 79 | 1000.8 |
| 20260506223453 | 21 | 186 | 1.6 | 8.0 | 0.00 | 0.30 | 0.30 | 79 | 1000.9 |
| 20260506222947 | 21 | 204 | 1.6 | 8.0 | 0.00 | 0.30 | 0.30 | 78 | 1000.9 |
| 20260506222706 | 21 | 207 | 3.2 | 16.1 | 0.00 | 0.30 | 0.30 | 78 | 1000.9 |
| 20260506221937 | 21 | 200 | 3.2 | 16.1 | 0.00 | 0.30 | 0.30 | 77 | 1000.9 |
| 20260506221430 | 21 | 204 | 4.8 | 12.9 | 0.00 | 0.30 | 0.30 | 77 | 1001.0 |
| 20260506221147 | 21 | 195 | 4.8 | 12.9 | 0.00 | 0.30 | 0.30 | 77 | 1001.0 |
| 20260506220417 | 21 | 205 | 3.2 | 9.7 | 0.00 | 0.30 | 0.30 | 76 | 1000.8 |
| 20260506215911 | 21 | 205 | 1.6 | 8.0 | 0.00 | 0.30 | 0.30 | 76 | 1000.9 |
| 20260506215406 | 21 | 174 | 1.6 | 9.7 | 0.00 | 0.30 | 0.30 | 77 | 1001.0 |
| 20260506214859 | 21 | 202 | 3.2 | 11.3 | 0.00 | 0.30 | 0.30 | 77 | 1001.1 |
| 20260506214353 | 21 | 212 | 3.2 | 11.3 | 0.00 | 0.30 | 0.30 | 76 | 1001.0 |
| 20260506213847 | 21 | 279 | 3.2 | 9.7 | 0.00 | 0.30 | 0.30 | 76 | 1000.9 |
| 20260506213341 | 21 | 242 | 4.8 | 12.9 | 0.00 | 0.30 | 0.30 | 75 | 1000.8 |
| 20260506212836 | 21 | 283 | 3.2 | 12.9 | 0.00 | 0.30 | 0.30 | 75 | 1000.7 |
| 20260506212329 | 21 | 269 | 3.2 | 12.9 | 0.00 | 0.30 | 0.30 | 77 | 1000.7 |
| 20260506211823 | 21 | 160 | 3.2 | 12.9 | 0.00 | 0.30 | 0.30 | 76 | 1000.6 |
| 20260506211317 | 21 | 236 | 3.2 | 11.3 | 0.00 | 0.30 | 0.30 | 77 | 1000.6 |
| 20260506210812 | 21 | 56 | 4.8 | 12.9 | 0.00 | 0.30 | 0.30 | 77 | 1000.5 |
| 20260506210307 | 21 | 222 | 6.4 | 17.7 | 0.00 | 0.30 | 0.30 | 77 | 1000.4 |
| 20260506205759 | 21 | 213 | 4.8 | 17.7 | 0.00 | 0.30 | 0.30 | 77 | 1000.4 |
| 20260506205253 | 21 | 193 | 3.2 | 16.1 | 0.00 | 0.30 | 0.30 | 78 | 1000.4 |
| 20260506204747 | 21 | 209 | 3.2 | 16.1 | 0.00 | 0.30 | 0.30 | 78 | 1000.4 |
| 20260506204242 | 21 | 198 | 3.2 | 11.3 | 0.00 | 0.30 | 0.30 | 79 | 1000.3 |
| 20260506203737 | 21 | 217 | 3.2 | 9.7 | 0.00 | 0.30 | 0.30 | 79 | 1000.4 |